Location: Sundre
(51.7972°N, 114.6405°W)
Time: 08:22:10
(UTC-07:00)

TIGRISAT - Visible Passes

Search period start: 25 January 2020 00:00
Search period end: 04 February 2020 00:00
Orbit: 604 x 690 km, 97.7° (Epoch: 24 January)

Date Brightness Start Highest point End Pass type
(mag) Time Alt. Az. Time Alt. Az. Time Alt. Az.
25 Jan ? 07:48:28 10° SSE 07:52:44 55° ENE 07:56:56 10° N visible
26 Jan ? 06:39:49 10° E 06:42:15 15° ENE 06:44:40 10° NNE visible
27 Jan ? 07:04:14 10° ESE 07:07:39 23° ENE 07:11:02 10° N visible
28 Jan ? 07:29:10 10° SE 07:33:08 37° ENE 07:37:05 10° N visible
29 Jan ? 06:22:03 10° ENE 06:22:50 10° NE 06:23:38 10° NE visible
30 Jan ? 06:45:29 10° E 06:48:11 17° ENE 06:50:51 10° NNE visible
31 Jan ? 07:10:04 10° ESE 07:13:36 26° ENE 07:17:08 10° N visible
01 Feb ? 07:35:04 10° SE 07:39:07 42° ENE 07:43:08 10° N visible
02 Feb ? 06:27:15 10° ENE 06:28:45 12° NE 06:30:15 10° NNE visible
03 Feb ? 06:51:11 10° ESE 06:54:07 18° ENE 06:57:02 10° NNE visible
